Location: 3 Angels Observatory
(30.5437°N, 88.5068°W)
Time: 00:51:57
(UTC-06:00)

Amateur Radio Satellites - All Passes

Search period start: 28 February 2015 00:21
Search period end: 01 March 2015 00:21
Location: 3 Angels Observatory, 30.5437°N, 88.5068°W

Satellite Date Start Highest point End Downlink Frequencies (MHz)
Time Altitude Azimuth
SWISSCUBE 28 Feb 00:22:59 00:27:31 46° 74° (ENE) 00:32:06 437.505
SPROUT 28 Feb 00:24:03 00:27:19 20° 266° (W) 00:30:27 437.525
BEESAT 28 Feb 00:32:08 00:36:45 54° 75° (ENE) 00:41:25 436.000
RS-15 28 Feb 00:37:46 00:48:02 43° 307° (NW) 00:58:16 29.354- 29.394
TISAT 1 28 Feb 00:40:30 00:42:49 14° 267° (W) 00:44:55 437.305
Oscar 19 28 Feb 00:47:46 00:52:23 34° 97° (E) 00:57:03 437.125/150
ITUPSAT 1 28 Feb 00:57:18 01:02:04 79° 259° (W) 01:06:53 437.325
DANDE 28 Feb 01:02:36 01:09:32 35° 281° (W) 01:15:02 436.750
PHONESAT 2.4 28 Feb 01:03:04 01:06:38 63° 213° (SSW) 01:10:10 2401.200-2431.200
VERMONT LUNAR 28 Feb 01:22:47 01:25:09 17° 219° (SW) 01:27:26 437.305
Gurwin Techsat 1B 28 Feb 01:32:45 01:36:44 22° 94° (E) 01:40:53 435.225
KKS-1 28 Feb 01:34:51 01:39:07 45° 75° (ENE) 01:43:25 437.445
STARS 28 Feb 01:48:36 01:52:45 40° 74° (ENE) 01:56:56 437.465
SO-50 28 Feb 01:54:55 01:59:26 75° 298° (WNW) 02:04:08 436.795
BEESAT 2 28 Feb 02:00:14 02:00:39 10° 49° (NE) 02:01:18 435.950
SWISSCUBE 28 Feb 02:03:17 02:05:41 13° 268° (W) 02:07:47 437.505
BEESAT 28 Feb 02:13:28 02:15:00 11° 269° (W) 02:16:11 436.000
ITAMSAT 1 28 Feb 02:17:55 02:23:10 88° 277° (W) 02:28:22 435.822/435.867
JUGNU 28 Feb 02:19:11 02:23:24 20° 167° (SSE) 02:27:42 437.505
Oscar 19 28 Feb 02:27:41 02:31:33 21° 290° (WNW) 02:35:15 437.125/150
YUBILEINY 28 Feb 02:46:27 02:54:28 39° 76° (ENE) 03:02:35 435.215
RS-15 28 Feb 03:02:36 03:04:42 10° 337° (NNW) 03:06:12 29.354- 29.394
Gurwin Techsat 1B 28 Feb 03:12:00 03:16:48 34° 288° (WNW) 03:21:31 435.225
BEESAT 3 28 Feb 03:13:05 03:17:12 86° 61° (ENE) 03:21:15 437.485
KKS-1 28 Feb 03:14:13 03:16:02 12° 268° (W) 03:17:34 437.445
M-CUBED/EXP-1 PRIME 28 Feb 03:15:42 03:18:57 57° 72° (ENE) 03:22:13 437.505
AIST 2 28 Feb 03:15:54 03:19:28 26° 56° (NE) 03:23:02 435.215
AUBIESAT-1 28 Feb 03:20:18 03:23:32 58° 72° (ENE) 03:26:49 437.475
JAS-2 28 Feb 03:21:42 03:27:59 29° 95° (E) 03:34:42 435.910
STARS 28 Feb 03:27:14 03:29:27 13° 268° (W) 03:31:23 437.465
HORYU 2 28 Feb 03:33:41 03:38:07 69° 284° (WNW) 03:42:31 437.375
BEESAT 2 28 Feb 03:35:12 03:39:17 60° 245° (WSW) 03:43:17 435.950
AO-7 28 Feb 03:37:29 03:45:30 52° 102° (ESE) 03:53:31 29.400- 29.500
MOZHAYETS 4 28 Feb 04:00:29 04:05:02 82° 79° (E) 04:09:37
SRMSAT 28 Feb 04:03:12 04:07:35 21° 168° (SSE) 04:12:02 437.500
JUGNU 28 Feb 04:06:54 04:11:57 29° 177° (S) 04:17:02 437.505
PRISM 28 Feb 04:40:44 04:42:31 13° 70° (ENE) 04:44:32 437.425
YUBILEINY 28 Feb 04:43:18 04:51:14 37° 271° (W) 04:58:57 435.215
STRAND 1 28 Feb 04:48:41 04:50:02 11° 67° (ENE) 04:51:44 437.568
AIST 2 28 Feb 04:54:44 04:57:56 21° 249° (WSW) 05:00:59 435.215
JAS-2 28 Feb 05:05:59 05:13:07 48° 287° (WNW) 05:20:31 435.910
Cubesat XI-IV 28 Feb 05:22:16 05:26:35 25° 95° (E) 05:31:01 437.490
AO-7 28 Feb 05:31:03 05:37:57 29° 296° (WNW) 05:44:36 29.400- 29.500
CUTE-I 28 Feb 05:31:51 05:36:32 31° 97° (E) 05:41:17 437.470
CUBESAT XI-V 28 Feb 05:50:54 05:55:34 90° 282° (WNW) 06:00:17 437.345
SRMSAT 28 Feb 05:51:12 05:56:18 29° 177° (S) 06:01:23 437.500
JUGNU 28 Feb 05:55:33 06:00:31 27° 187° (S) 06:05:28 437.505
PRISM 28 Feb 06:13:55 06:17:44 37° 262° (W) 06:21:35 437.425
PCSat 28 Feb 06:14:20 06:19:28 43° 61° (ENE) 06:24:36 145.827
STRAND 1 28 Feb 06:23:38 06:28:45 67° 259° (W) 06:33:53 437.568
Cubesat XI-IV 28 Feb 07:01:59 07:06:41 31° 289° (WNW) 07:11:17 437.490
CUTE-I 28 Feb 07:12:08 07:16:30 25° 290° (WNW) 07:20:43 437.470
AIST 1 28 Feb 07:26:02 07:30:18 60° 278° (W) 07:34:37
RS-15 28 Feb 07:33:07 07:42:54 33° 48° (NE) 07:53:22 29.354- 29.394
CUTE 1.7 + AOD 2 28 Feb 07:34:16 07:34:57 10° 91° (E) 07:35:57 437.475
SRMSAT 28 Feb 07:40:07 07:45:01 26° 187° (S) 07:49:53 437.500
JUGNU 28 Feb 07:45:19 07:49:03 17° 195° (SSW) 07:52:42 437.505
HO-68 28 Feb 07:58:43 08:05:05 35° 98° (E) 08:11:35 435.675
PCSat 28 Feb 07:58:47 08:02:36 19° 253° (WSW) 08:06:11 145.827
DOVE 4 28 Feb 08:13:00 08:16:19 23° 95° (E) 08:19:41 437.250
AAUSAT CUBESAT 2 28 Feb 08:26:12 08:29:48 28° 96° (E) 08:33:29 437.432
COMPASS 1 28 Feb 08:26:21 08:30:11 34° 98° (E) 08:34:01 437.405
CINEMA 3 28 Feb 08:41:44 08:45:09 25° 96° (E) 08:48:39 145.822/145.860
BRITE-PL 28 Feb 08:42:50 08:47:18 55° 284° (WNW) 08:51:27 437.365/2234.400
O/OREOS (USA 219) 28 Feb 08:43:32 08:47:28 30° 103° (ESE) 08:51:29 437.305
CANX-2 28 Feb 08:47:55 08:52:09 72° 283° (WNW) 08:56:23 2200.000
SEEDS 28 Feb 08:49:11 08:53:25 87° 99° (E) 08:57:40 437.485
UWE-3 28 Feb 08:50:46 08:52:43 13° 93° (E) 08:54:54 435.000/436.395/437.385
UKube-1 28 Feb 08:53:25 08:53:31 10° 91° (E) 08:53:58 .
GONETS M04 28 Feb 08:54:19 09:02:53 58° 80° (E) 09:11:31
GOMX 1 28 Feb 09:01:59 09:06:14 50° 285° (WNW) 09:10:17 467.674
CUTE 1.7 + AOD 2 28 Feb 09:07:06 09:11:10 45° 285° (WNW) 09:15:13 437.475
ISS 28 Feb 09:08:22 09:11:32 57° 315° (NW) 09:14:43 145.825
POLYITAN 1 28 Feb 09:12:56 09:15:05 14° 70° (ENE) 09:17:26 437.675
POPSAT HIP 1 28 Feb 09:14:47 09:17:02 15° 71° (ENE) 09:19:30 437.405
UNISAT 6 28 Feb 09:16:30 09:20:23 30° 73° (ENE) 09:24:15 437.425
CUBEBUG 2 28 Feb 09:20:42 09:24:37 41° 98° (E) 09:28:34 437.445
SRMSAT 28 Feb 09:30:12 09:33:41 16° 196° (SSW) 09:37:04 437.500
Oscar 11 28 Feb 09:33:09 09:37:29 90° 283° (WNW) 09:41:49 145.826/435.025
NANOSAT C BR1 28 Feb 09:37:37 09:41:14 27° 73° (ENE) 09:44:54 145.865
TIGRISAT 28 Feb 09:42:23 09:46:48 62° 76° (ENE) 09:51:09 435.000
AISAT 28 Feb 09:44:11 09:47:11 18° 94° (E) 09:50:21 437.250
RS-15 28 Feb 09:44:44 09:56:12 67° 247° (WSW) 10:08:04 29.354- 29.394
HO-68 28 Feb 09:46:20 09:52:46 36° 291° (WNW) 09:59:05 435.675
DELFI C3 28 Feb 09:50:09 09:54:12 67° 283° (WNW) 09:58:16 145.870
DOVE 4 28 Feb 09:50:53 09:54:02 20° 288° (WNW) 09:57:00 437.250
DX 1 28 Feb 09:52:36 09:56:57 66° 101° (E) 10:01:16 434.975-435.025
ANTELSAT 28 Feb 09:54:20 09:58:50 90° 320° (NW) 10:03:15 437.575/2403.000
VELOX 1 28 Feb 09:54:38 09:58:11 24° 96° (E) 10:01:48 145.980
ESTCUBE 1 28 Feb 10:01:12 10:03:01 13° 92° (E) 10:05:07 437.505/2401.250
AAUSAT CUBESAT 2 28 Feb 10:02:31 10:05:17 17° 288° (WNW) 10:07:54 437.432
COMPASS 1 28 Feb 10:03:15 10:05:38 14° 289° (WNW) 10:07:50 437.405
QB50P1 28 Feb 10:09:00 10:13:16 71° 77° (ENE) 10:17:32 145.935-145.965
QB50P2 28 Feb 10:11:49 10:16:07 79° 77° (ENE) 10:20:25 145.880/145.840
FUNcube-1 28 Feb 10:12:10 10:16:17 64° 283° (WNW) 10:20:23 145.935
ZACube-1 28 Feb 10:12:24 10:16:30 62° 283° (WNW) 10:20:37 437.345
CINEMA 3 28 Feb 10:19:23 10:22:16 18° 288° (WNW) 10:24:58 145.822/145.860
O/OREOS (USA 219) 28 Feb 10:23:38 10:26:57 19° 298° (WNW) 10:30:09 437.305
UWE-3 28 Feb 10:25:41 10:29:26 33° 286° (WNW) 10:33:09 435.000/436.395/437.385
UKube-1 28 Feb 10:25:49 10:30:01 49° 286° (WNW) 10:34:11 .
DUCHIFAT 1 28 Feb 10:29:25 10:33:40 64° 259° (WSW) 10:37:57 145.980
SO-50 28 Feb 10:32:19 10:36:14 24° 53° (NE) 10:40:13 436.795
BUGSAT 1 28 Feb 10:33:43 10:37:58 78° 258° (WSW) 10:42:15 437.445
HUMSAT D 28 Feb 10:37:17 10:41:21 62° 283° (WNW) 10:45:24 437.325/437.525
POLYITAN 1 28 Feb 10:46:44 10:50:44 37° 262° (W) 10:54:43 437.675
POPSAT HIP 1 28 Feb 10:48:42 10:52:40 35° 262° (W) 10:56:37 437.405
GONETS M04 28 Feb 10:52:32 10:59:14 24° 274° (W) 11:05:34
UNISAT 6 28 Feb 10:54:08 10:57:13 18° 266° (W) 11:00:06 437.425
CUSAT 1 28 Feb 10:55:05 10:57:19 26° 79° (E) 10:59:40 437.405
CUBEBUG 2 28 Feb 10:59:36 11:01:02 11° 290° (WNW) 11:02:12 437.445
50 SAT 28 Feb 11:02:50 11:06:33 40° 285° (WNW) 11:10:16 437.505
NANOSAT C BR1 28 Feb 11:14:06 11:17:08 18° 266° (W) 11:20:00 145.865
AISAT 28 Feb 11:20:00 11:23:52 29° 287° (WNW) 11:27:38 437.250
VELOX 1 28 Feb 11:31:10 11:34:41 23° 288° (WNW) 11:38:04 145.980
CUBEBUG 1 28 Feb 11:32:33 11:36:51 51° 285° (WNW) 11:41:05 437.445
ESTCUBE 1 28 Feb 11:35:50 11:40:10 44° 286° (WNW) 11:44:28 437.505/2401.250
DANDE 28 Feb 11:52:28 11:54:50 29° 265° (W) 11:57:11 436.750
Oscar 19 28 Feb 11:59:24 12:03:44 29° 72° (ENE) 12:08:09 437.125/150
SO-50 28 Feb 12:12:25 12:16:51 33° 248° (WSW) 12:21:10 436.795
SPROUT 28 Feb 12:15:11 12:19:29 73° 284° (WNW) 12:23:43 437.525
TISAT 1 28 Feb 12:28:45 12:32:53 53° 284° (WNW) 12:36:58 437.305
SWISSCUBE 28 Feb 12:29:58 12:33:19 19° 94° (E) 12:36:49 437.505
BEESAT 28 Feb 12:38:50 12:42:30 22° 95° (E) 12:46:17 436.000
Gurwin Techsat 1B 28 Feb 12:48:46 12:52:33 21° 70° (ENE) 12:56:31 435.225
ITUPSAT 1 28 Feb 13:03:50 13:08:23 42° 99° (E) 13:12:57 437.325
ITAMSAT 1 28 Feb 13:30:08 13:35:20 80° 76° (ENE) 13:40:36 435.822/435.867
KKS-1 28 Feb 13:33:20 13:35:30 14° 93° (E) 13:37:55 437.445
Oscar 19 28 Feb 13:38:49 13:43:04 25° 264° (W) 13:47:12 437.125/150
STARS 28 Feb 13:46:21 13:47:46 12° 92° (E) 13:49:28 437.465
SWISSCUBE 28 Feb 14:06:57 14:11:15 33° 287° (WNW) 14:15:29 437.505
BEESAT 28 Feb 14:16:13 14:20:21 28° 288° (WNW) 14:24:23 436.000
HORYU 2 28 Feb 14:26:29 14:30:47 52° 75° (ENE) 14:35:07 437.375
Gurwin Techsat 1B 28 Feb 14:27:24 14:32:18 37° 262° (W) 14:37:12 435.225
AO-7 28 Feb 14:30:19 14:38:00 44° 67° (ENE) 14:45:47 29.400- 29.500
ITUPSAT 1 28 Feb 14:43:02 14:45:59 16° 291° (WNW) 14:48:42 437.325
KKS-1 28 Feb 15:08:14 15:12:21 38° 286° (WNW) 15:16:25 437.445
JAS-2 28 Feb 15:13:11 15:18:03 40° 72° (ENE) 15:23:26 435.910
STARS 28 Feb 15:20:20 15:24:31 43° 286° (WNW) 15:28:38 437.465
YUBILEINY 28 Feb 15:39:49 15:48:07 53° 91° (E) 15:56:35 435.215
ISS 28 Feb 15:41:54 15:42:58 11° 32° (NNE) 15:44:09 145.825
MOZHAYETS 4 28 Feb 16:01:42 16:05:45 30° 96° (E) 16:09:51
AO-7 28 Feb 16:23:25 16:30:53 34° 262° (W) 16:38:10 29.400- 29.500
VERMONT LUNAR 28 Feb 16:25:59 16:28:47 23° 143° (SE) 16:31:38 437.305
M-CUBED/EXP-1 PRIME 28 Feb 16:36:07 16:40:22 62° 287° (WNW) 16:44:54 437.505
Cubesat XI-IV 28 Feb 16:39:02 16:43:15 25° 70° (ENE) 16:47:37 437.490
AUBIESAT-1 28 Feb 16:40:11 16:44:27 63° 288° (WNW) 16:49:00 437.475
CUTE-I 28 Feb 16:48:21 16:52:55 30° 71° (ENE) 16:57:37 437.470
JAS-2 28 Feb 16:59:51 17:03:33 18° 269° (W) 17:07:11 435.910
BEESAT 3 28 Feb 17:01:25 17:05:25 64° 115° (ESE) 17:09:30 437.485
AIST 2 28 Feb 17:09:09 17:12:18 21° 111° (ESE) 17:15:36 435.215
ISS 28 Feb 17:16:31 17:19:43 61° 228° (SW) 17:22:55 145.825
BEESAT 2 28 Feb 17:24:08 17:28:14 79° 297° (WNW) 17:32:23 435.950
YUBILEINY 28 Feb 17:38:13 17:45:23 27° 288° (WNW) 17:52:17 435.215
MOZHAYETS 4 28 Feb 17:39:24 17:42:48 20° 289° (WNW) 17:46:05
AIST 1 28 Feb 17:40:02 17:43:07 19° 76° (ENE) 17:46:20
PHONESAT 2.4 28 Feb 17:49:49 17:53:24 58° 147° (SSE) 17:56:59 2401.200-2431.200
CUBESAT XI-V 28 Feb 17:53:43 17:58:01 35° 97° (E) 18:02:19 437.345
PRISM 28 Feb 18:01:55 18:05:59 45° 99° (E) 18:10:02 437.425
VERMONT LUNAR 28 Feb 18:03:10 18:06:34 48° 335° (NNW) 18:09:58 437.305
Cubesat XI-IV 28 Feb 18:18:27 18:23:13 32° 263° (W) 18:27:57 437.490
HO-68 28 Feb 18:24:17 18:27:38 15° 62° (ENE) 18:31:27 435.675
CUTE-I 28 Feb 18:28:33 18:33:00 26° 264° (W) 18:37:21 437.470
STRAND 1 28 Feb 18:39:55 18:45:03 67° 101° (ESE) 18:50:09 437.568
AIST 2 28 Feb 18:47:12 18:50:48 26° 304° (NW) 18:54:23 435.215
O/OREOS (USA 219) 28 Feb 18:59:10 19:02:52 24° 64° (ENE) 19:06:37 437.305
PCSat 28 Feb 19:10:49 19:12:25 12° 105° (ESE) 19:14:25 145.827
DOVE 4 28 Feb 19:13:19 19:16:33 17° 71° (ENE) 19:19:55 437.250
COMPASS 1 28 Feb 19:14:42 19:16:08 12° 70° (ENE) 19:17:48 437.405
AIST 1 28 Feb 19:17:08 19:20:47 25° 269° (W) 19:24:19
PHONESAT 2.4 28 Feb 19:28:48 19:32:01 28° 342° (NNW) 19:35:13 2401.200-2431.200
CUBESAT XI-V 28 Feb 19:32:02 19:35:13 18° 289° (WNW) 19:38:12 437.345
CANX-2 28 Feb 19:35:35 19:39:27 37° 75° (ENE) 19:43:23 2200.000
SEEDS 28 Feb 19:36:23 19:39:56 28° 74° (ENE) 19:43:33 437.485
CINEMA 3 28 Feb 19:38:54 19:41:38 16° 71° (ENE) 19:44:33 145.822/145.860
PRISM 28 Feb 19:39:42 19:41:08 11° 291° (WNW) 19:42:19 437.425
VERMONT LUNAR 28 Feb 19:42:33 19:45:01 18° 351° (N) 19:47:28 437.305
BRITE-PL 28 Feb 19:46:09 19:51:52 86° 79° (E) 19:57:28 437.365/2234.400
CUTE 1.7 + AOD 2 28 Feb 19:54:14 19:58:23 59° 77° (ENE) 20:02:33 437.475
GOMX 1 28 Feb 20:02:54 20:08:23 86° 82° (E) 20:13:44 467.674
HO-68 28 Feb 20:07:29 20:14:38 84° 256° (WSW) 20:21:50 435.675
CUBEBUG 2 28 Feb 20:14:15 20:17:31 20° 72° (ENE) 20:20:51 437.445
STRAND 1 28 Feb 20:22:03 20:23:46 11° 293° (WNW) 20:25:08 437.568
Oscar 11 28 Feb 20:22:42 20:26:32 33° 74° (ENE) 20:30:25 145.826/435.025
DELFI C3 28 Feb 20:32:55 20:36:30 32° 74° (ENE) 20:40:09 145.870
O/OREOS (USA 219) 28 Feb 20:38:31 20:42:13 23° 257° (WSW) 20:45:45 437.305
DX 1 28 Feb 20:43:09 20:46:51 28° 73° (ENE) 20:50:39 434.975-435.025
AAUSAT CUBESAT 2 28 Feb 20:46:42 20:50:43 48° 261° (W) 20:54:44 437.432
COMPASS 1 28 Feb 20:47:37 20:51:32 40° 262° (W) 20:55:27 437.405
DOVE 4 28 Feb 20:49:01 20:54:02 44° 261° (W) 20:58:53 437.250
VELOX 1 28 Feb 20:49:06 20:50:32 12° 69° (ENE) 20:52:15 145.980
PCSat 28 Feb 20:50:00 20:55:22 66° 296° (WNW) 21:00:46 145.827
FUNcube-1 28 Feb 21:02:19 21:06:34 47° 76° (ENE) 21:10:45 145.935
ZACube-1 28 Feb 21:02:42 21:06:59 49° 76° (ENE) 21:11:12 437.345
PHONESAT 2.4 28 Feb 21:08:48 21:11:13 17° 359° (N) 21:13:38 2401.200-2431.200
SEEDS 28 Feb 21:13:04 21:15:49 16° 266° (W) 21:18:24 437.485
CANX-2 28 Feb 21:13:41 21:15:36 12° 268° (W) 21:17:16 2200.000
CINEMA 3 28 Feb 21:13:56 21:18:36 42° 262° (W) 21:23:05 145.822/145.860
UKube-1 28 Feb 21:14:55 21:19:13 66° 76° (ENE) 21:23:33 .
UWE-3 28 Feb 21:16:33 21:21:07 88° 258° (WSW) 21:25:32 435.000/436.395/437.385
VERMONT LUNAR 28 Feb 21:21:21 21:23:45 17° 8° (N) 21:26:10 437.305
HUMSAT D 28 Feb 21:23:44 21:27:43 42° 75° (ENE) 21:31:42 437.325/437.525
TIGRISAT 28 Feb 21:40:41 21:43:40 19° 95° (E) 21:46:50 435.000
50 SAT 28 Feb 21:43:47 21:47:40 50° 76° (ENE) 21:51:33 437.505
GONETS M04 28 Feb 21:47:51 21:56:30 79° 94° (E) 22:05:12
CUBEBUG 2 28 Feb 21:50:04 21:54:05 28° 263° (W) 21:57:56 437.445
RS-15 28 Feb 21:50:56 21:59:51 32° 107° (ESE) 22:09:08 29.354- 29.394
ANTELSAT 28 Feb 21:52:28 21:56:08 28° 97° (E) 21:59:54 437.575/2403.000
Oscar 11 28 Feb 22:00:18 22:02:51 15° 267° (W) 22:05:12 145.826/435.025
QB50P1 28 Feb 22:01:07 22:03:53 18° 94° (E) 22:06:49 145.935-145.965
QB50P2 28 Feb 22:03:57 22:06:59 20° 95° (E) 22:10:07 145.880/145.840
DELFI C3 28 Feb 22:09:52 22:11:51 13° 267° (W) 22:13:39 145.870
AISAT 28 Feb 22:11:39 22:16:07 66° 259° (W) 22:20:36 437.250
DX 1 28 Feb 22:19:57 22:23:08 19° 265° (W) 22:26:11 434.975-435.025
DUCHIFAT 1 28 Feb 22:20:28 22:24:10 30° 97° (E) 22:27:54 145.980
VELOX 1 28 Feb 22:22:24 22:26:45 49° 261° (W) 22:31:06 145.980
BUGSAT 1 28 Feb 22:22:38 22:25:53 23° 95° (E) 22:29:12 437.445
CUBEBUG 1 28 Feb 22:22:51 22:27:13 63° 76° (ENE) 22:31:38 437.445
ESTCUBE 1 28 Feb 22:29:33 22:34:03 85° 77° (ENE) 22:38:37 437.505/2401.250
POLYITAN 1 28 Feb 22:37:46 22:41:54 53° 100° (E) 22:46:00 437.675
POPSAT HIP 1 28 Feb 22:39:24 22:43:33 55° 100° (E) 22:47:41 437.405
FUNcube-1 28 Feb 22:41:57 22:43:11 11° 269° (W) 22:44:05 145.935
ZACube-1 28 Feb 22:42:40 22:43:38 10° 269° (W) 22:44:17 437.345
PHONESAT 2.4 28 Feb 22:47:26 22:50:27 24° 16° (NNE) 22:53:29 2401.200-2431.200
UNISAT 6 28 Feb 22:50:09 22:54:21 53° 284° (WNW) 22:58:35 437.425
VERMONT LUNAR 28 Feb 22:58:52 23:02:13 45° 24° (NNE) 23:05:33 437.305
HUMSAT D 28 Feb 23:02:20 23:03:44 11° 268° (W) 23:04:51 437.325/437.525
NANOSAT C BR1 28 Feb 23:03:25 23:07:37 71° 283° (WNW) 23:11:47 145.865
SPROUT 28 Feb 23:03:51 23:07:54 40° 75° (ENE) 23:12:00 437.525
DANDE 28 Feb 23:12:53 23:19:26 33° 95° (E) 23:24:55 436.750
TISAT 1 28 Feb 23:15:19 23:19:28 51° 76° (ENE) 23:23:39 437.305
TIGRISAT 28 Feb 23:16:51 23:20:27 26° 287° (WNW) 23:24:00 435.000
ANTELSAT 28 Feb 23:29:46 23:32:48 18° 288° (WNW) 23:35:42 437.575/2403.000
SWISSCUBE 28 Feb 23:32:58 23:34:43 12° 68° (ENE) 23:36:46 437.505
QB50P1 28 Feb 23:36:13 23:39:49 27° 287° (WNW) 23:43:20 145.935-145.965
QB50P2 28 Feb 23:39:24 23:42:53 24° 287° (WNW) 23:46:15 145.880/145.840
BEESAT 28 Feb 23:41:22 23:43:43 14° 69° (ENE) 23:46:19 436.000
GONETS M04 28 Feb 23:49:02 23:54:26 17° 293° (WNW) 23:59:14
CUSAT 1 28 Feb 23:54:37 00:01:53 88° 275° (W) 00:07:26 437.405
DUCHIFAT 1 28 Feb 23:57:09 23:59:49 16° 289° (WNW) 00:02:18 145.980
BUGSAT 1 28 Feb 23:58:10 00:01:16 20° 288° (WNW) 00:04:14 437.445
ITUPSAT 1 01 Mar 00:05:43 00:09:36 26° 72° (ENE) 00:13:37 437.325
JUGNU 01 Mar 00:19:37 00:19:57 10° 161° (SSE) 00:20:28 437.505
